KB3AWQ Weather Reports


time (UTC)temp
C
wind
direction
speed
KPH
gust
KPH
rain 1hr
cm
rain 24hr
cm
rain mn
cm
humidity
%
barometer
mb
20260506013926 18 0 0.0 0.0 0.00 0.00 0.03 77 1008.2
20260506012942 18 0 0.0 0.0 0.00 0.00 0.03 76 1008.0
20260506012427 18 0 0.0 0.0 0.00 0.00 0.03 76 1007.9
20260506011926 18 0 0.0 0.0 0.00 0.00 0.03 75 1007.9
20260506011123 19 0 0.0 0.0 0.00 0.00 0.03 74 1007.7
20260506010427 19 0 0.0 0.0 0.00 0.00 0.03 73 1007.7
20260506005926 19 0 0.0 0.0 0.00 0.00 0.03 72 1007.8
20260506005427 20 0 0.0 0.0 0.00 0.00 0.03 72 1007.8
20260506004928 20 0 0.0 0.0 0.00 0.00 0.03 71 1007.8
20260506004426 20 0 0.0 0.0 0.00 0.00 0.03 70 1007.7
20260506003926 20 0 0.0 0.0 0.00 0.00 0.03 69 1007.7
20260506003426 20 0 0.0 0.0 0.00 0.00 0.03 67 1007.7
20260506002926 21 75 0.0 1.6 0.00 0.00 0.03 66 1007.6
20260506002426 21 60 0.0 1.6 0.00 0.00 0.03 65 1007.5
20260506001926 21 0 0.0 0.0 0.00 0.00 0.03 65 1007.3
20260506001426 21 0 0.0 0.0 0.00 0.00 0.03 63 1007.2
20260506000926 21 0 0.0 0.0 0.00 0.00 0.03 63 1007.1
20260506000427 21 0 0.0 0.0 0.00 0.00 0.03 63 1007.0
20260505235926 21 0 0.0 0.0 0.00 0.00 0.03 62 1007.1
20260505235426 22 0 0.0 0.0 0.00 0.00 0.03 62 1007.1
20260505234926 22 0 0.0 0.0 0.00 0.00 0.03 61 1007.0
20260505234426 22 0 0.0 0.0 0.00 0.00 0.03 61 1007.0
20260505233926 22 290 0.0 3.2 0.00 0.00 0.03 61 1006.9
20260505233426 22 0 0.0 0.0 0.00 0.00 0.03 60 1007.0
20260505232926 22 279 0.0 1.6 0.00 0.00 0.03 60 1007.0
20260505232426 22 0 0.0 0.0 0.00 0.00 0.03 59 1007.1
20260505231927 22 249 0.0 3.2 0.00 0.00 0.03 59 1007.1
20260505231426 23 0 0.0 0.0 0.00 0.00 0.03 58 1007.1
20260505230926 23 242 0.0 1.6 0.00 0.00 0.03 57 1007.0
20260505230426 23 235 0.0 1.6 0.00 0.00 0.03 57 1007.1
20260505225926 23 227 0.0 1.6 0.00 0.00 0.03 56 1007.1
20260505225426 23 269 0.0 3.2 0.00 0.00 0.03 54 1007.1
20260505224926 23 249 1.6 3.2 0.00 0.00 0.03 54 1007.2
20260505224427 23 237 1.6 3.2 0.00 0.00 0.03 53 1007.2
20260505223926 23 229 1.6 4.8 0.00 0.00 0.03 52 1007.3
20260505223427 24 233 0.0 1.6 0.00 0.00 0.03 51 1007.3
20260505222926 24 245 3.2 6.4 0.00 0.00 0.03 50 1007.2
20260505222429 24 233 4.8 9.7 0.00 0.00 0.03 49 1007.1
20260505221926 24 234 1.6 4.8 0.00 0.00 0.03 49 1007.1
20260505221427 24 240 4.8 11.3 0.00 0.00 0.03 49 1007.2
20260505220927 24 237 1.6 3.2 0.00 0.00 0.03 49 1007.2
20260505220426 24 0 0.0 0.0 0.00 0.00 0.03 49 1007.1
20260505215926 24 236 3.2 6.4 0.00 0.00 0.03 48 1007.1
20260505215426 25 251 1.6 11.3 0.00 0.00 0.03 48 1007.1
20260505214926 25 188 3.2 8.0 0.00 0.00 0.03 49 1007.0
20260505214427 25 189 0.0 1.6 0.00 0.00 0.03 50 1007.0
20260505213927 25 289 1.6 3.2 0.00 0.00 0.03 50 1006.9
20260505213427 25 215 1.6 3.2 0.00 0.00 0.03 49 1006.8
20260505212926 25 254 0.0 1.6 0.00 0.00 0.03 49 1006.6
20260505212426 25 255 1.6 6.4 0.00 0.00 0.03 48 1006.6
20260505211926 25 214 0.0 1.6 0.00 0.00 0.03 49 1006.5
20260505211426 25 250 1.6 3.2 0.00 0.00 0.03 50 1006.4
20260505210927 24 227 1.6 3.2 0.00 0.00 0.03 50 1006.4
20260505210428 25 190 0.0 3.2 0.00 0.00 0.03 51 1006.5
20260505205926 25 212 1.6 4.8 0.00 0.00 0.03 50 1006.5
20260505205428 25 214 0.0 1.6 0.00 0.00 0.03 49 1006.5
20260505204927 25 256 1.6 4.8 0.00 0.00 0.03 47 1006.5
20260505204427 25 243 1.6 3.2 0.00 0.00 0.03 47 1006.5
20260505203926 25 220 1.6 3.2 0.00 0.00 0.03 46 1006.5
20260505203426 25 233 1.6 4.8 0.00 0.00 0.03 46 1006.6
20260505202926 25 235 1.6 4.8 0.00 0.00 0.03 45 1006.6
20260505202426 25 226 3.2 8.0 0.00 0.00 0.03 45 1006.6
20260505201927 25 245 6.4 14.5 0.00 0.00 0.03 42 1006.5
20260505201428 25 229 4.8 9.7 0.00 0.00 0.03 43 1006.3
20260505200927 25 219 1.6 3.2 0.00 0.00 0.03 46 1006.2
20260505200430 26 242 1.6 3.2 0.00 0.00 0.03 45 1006.3
20260505195928 26 250 3.2 4.8 0.00 0.00 0.03 42 1006.3
20260505195428 26 259 3.2 8.0 0.00 0.00 0.03 42 1006.2
20260505194927 26 238 3.2 3.2 0.00 0.00 0.03 42 1006.3
20260505194427 26 243 1.6 3.2 0.00 0.00 0.03 41 1006.3
20260505193926 26 256 3.2 9.7 0.00 0.00 0.03 39 1006.3
20260505193427 26 242 3.2 3.2 0.00 0.00 0.03 39 1006.2
20260505192927 26 257 6.4 11.3 0.00 0.00 0.03 38 1006.2
20260505192430 26 247 3.2 4.8 0.00 0.00 0.03 39 1006.3
20260505191926 26 253 6.4 9.7 0.00 0.00 0.03 38 1006.3
20260505191427 27 247 6.4 11.3 0.00 0.00 0.03 38 1006.1
20260505190926 27 243 6.4 14.5 0.00 0.00 0.03 38 1006.3
20260505190427 27 273 3.2 6.4 0.00 0.00 0.03 39 1006.1
20260505185926 26 267 4.8 9.7 0.00 0.00 0.03 40 1006.1
20260505185427 26 243 4.8 11.3 0.00 0.00 0.03 41 1006.2
20260505184936 26 250 4.8 8.0 0.00 0.00 0.03 41 1006.2
20260505184427 26 251 3.2 6.4 0.00 0.00 0.03 42 1006.1
20260505183926 26 245 6.4 11.3 0.00 0.00 0.03 41 1006.3
20260505183426 26 251 3.2 6.4 0.00 0.00 0.03 43 1006.5
20260505182927 27 245 3.2 6.4 0.00 0.00 0.03 42 1006.5
20260505182427 27 254 6.4 14.5 0.00 0.00 0.03 40 1006.5
20260505181926 27 255 6.4 12.9 0.00 0.00 0.03 41 1006.5
20260505181427 27 259 3.2 6.4 0.00 0.00 0.03 41 1006.5
20260505180927 27 249 4.8 11.3 0.00 0.00 0.03 43 1006.7
20260505180426 27 234 4.8 9.7 0.00 0.00 0.03 42 1006.8
20260505175926 27 255 4.8 8.0 0.00 0.00 0.03 42 1007.0
20260505175426 27 255 6.4 11.3 0.00 0.00 0.03 42 1006.9
20260505174926 26 252 3.2 9.7 0.00 0.00 0.03 43 1006.9
20260505174429 26 251 6.4 12.9 0.00 0.00 0.03 43 1007.0
20260505173928 26 251 6.4 14.5 0.00 0.00 0.03 42 1007.1
20260505173429 26 242 3.2 4.8 0.00 0.00 0.03 44 1006.9
20260505172926 26 245 6.4 14.5 0.00 0.00 0.03 42 1007.1
20260505172426 26 276 4.8 8.0 0.00 0.00 0.03 43 1007.2
20260505171926 26 251 6.4 9.7 0.00 0.00 0.03 43 1007.3
20260505171427 26 248 6.4 11.3 0.00 0.00 0.03 44 1007.2
20260505170927 26 256 4.8 11.3 0.00 0.00 0.03 44 1007.5
20260505170427 26 258 8.0 14.5 0.00 0.00 0.03 45 1007.3
20260505165927 26 247 3.2 6.4 0.00 0.00 0.03 46 1007.5
20260505165427 26 256 6.4 12.9 0.00 0.00 0.03 45 1007.5
20260505164928 26 235 4.8 11.3 0.00 0.00 0.03 47 1007.5
20260505164426 26 241 3.2 4.8 0.00 0.00 0.03 47 1007.3
20260505163926 26 244 6.4 9.7 0.00 0.00 0.03 45 1007.5
20260505163426 26 244 3.2 9.7 0.00 0.00 0.03 47 1007.5
20260505162927 26 248 4.8 11.3 0.00 0.00 0.03 47 1007.5
20260505162426 26 250 6.4 11.3 0.00 0.00 0.03 46 1007.6
20260505161927 25 245 3.2 6.4 0.00 0.00 0.03 48 1007.6
20260505161432 25 244 3.2 6.4 0.00 0.00 0.03 50 1007.8
20260505160926 25 257 6.4 11.3 0.00 0.00 0.03 49 1007.9
20260505160427 25 256 6.4 12.9 0.00 0.00 0.03 48 1007.9
20260505152927 25 246 3.2 8.0 0.00 0.00 0.03 51 1008.2
20260505152427 25 245 4.8 9.7 0.00 0.00 0.03 50 1008.2
20260505151929 25 249 6.4 14.5 0.00 0.00 0.03 50 1008.2
20260505151427 25 267 4.8 11.3 0.00 0.00 0.03 50 1008.2
20260505150928 25 240 1.6 3.2 0.00 0.00 0.03 51 1008.1
20260505150426 25 252 4.8 11.3 0.00 0.00 0.03 48 1008.1
20260505140427 22 108 0.0 0.0 0.00 0.00 0.03 60 1008.3
20260505124926 15 229 0.0 0.0 0.00 0.00 0.03 86 1008.7
20260505124428 14 0 0.0 0.0 0.00 0.00 0.03 88 1008.8
20260505123926 13 0 0.0 0.0 0.00 0.00 0.03 90 1008.8
20260505123426 13 0 0.0 0.0 0.00 0.00 0.03 91 1008.9
20260505122926 13 0 0.0 0.0 0.00 0.00 0.03 91 1008.9
20260505122426 13 219 0.0 1.6 0.00 0.00 0.03 91 1009.0
20260505121926 13 0 0.0 0.0 0.00 0.00 0.03 91 1009.0
20260505121427 13 0 0.0 0.0 0.00 0.00 0.03 91 1009.0
20260505120926 13 0 0.0 0.0 0.00 0.00 0.03 90 1009.0
20260505120426 13 0 0.0 0.0 0.00 0.00 0.03 90 1009.0
20260505115926 13 13 0.0 3.2 0.00 0.00 0.03 90 1009.0
20260505115426 12 59 0.0 1.6 0.00 0.00 0.03 89 1009.1
20260505114927 12 0 0.0 0.0 0.00 0.00 0.03 90 1009.2
20260505114427 12 0 0.0 0.0 0.00 0.00 0.03 91 1009.1
20260505113926 12 225 0.0 1.6 0.00 0.00 0.03 92 1009.0
20260505113426 12 11 0.0 3.2 0.00 0.00 0.03 93 1008.8
20260505112926 12 0 0.0 0.0 0.00 0.00 0.03 94 1008.7
20260505112426 12 331 0.0 3.2 0.00 0.00 0.03 94 1008.7
20260505111926 12 0 0.0 0.0 0.00 0.00 0.03 94 1008.6
20260505111426 12 0 0.0 0.0 0.00 0.00 0.03 94 1008.6
20260505110926 12 0 0.0 0.0 0.00 0.00 0.03 94 1008.5
20260505110426 11 0 0.0 0.0 0.03 0.00 0.03 94 1008.4
20260505101927 11 0 0.0 0.0 0.03 0.00 0.03 94 1008.3
20260505101426 11 0 0.0 0.0 0.00 0.00 0.03 93 1008.3
20260505100928 11 0 0.0 0.0 0.00 0.00 0.03 93 1008.2
20260505100426 11 206 0.0 3.2 0.00 0.00 0.03 92 1008.3
20260505095926 11 222 1.6 3.2 0.00 0.00 0.00 93 1008.4
20260505095426 10 300 0.0 3.2 0.00 0.00 0.00 92 1008.5
20260505094927 10 206 0.0 1.6 0.00 0.00 0.00 92 1008.4
20260505094427 10 200 0.0 1.6 0.00 0.00 0.00 92 1008.3
20260505093926 10 0 0.0 0.0 0.00 0.00 0.00 92 1008.2
20260505093428 10 0 0.0 0.0 0.00 0.00 0.00 92 1008.1
20260505092928 10 0 0.0 0.0 0.00 0.00 0.00 92 1008.0
20260505092426 10 209 0.0 3.2 0.00 0.00 0.00 92 1007.7
20260505091926 10 209 1.6 3.2 0.00 0.00 0.00 92 1007.7
20260505091426 10 0 0.0 0.0 0.00 0.00 0.00 92 1007.7
20260505090929 10 0 0.0 0.0 0.00 0.00 0.00 92 1007.6
20260505090427 10 214 0.0 1.6 0.00 0.00 0.00 92 1007.7
20260505085522 10 0 0.0 0.0 0.00 0.00 0.00 92 1007.6
20260505084942 10 0 0.0 0.0 0.00 0.00 0.00 91 1007.7
20260505084427 11 0 0.0 0.0 0.00 0.00 0.00 91 1007.8
20260505083926 11 0 0.0 0.0 0.00 0.00 0.00 91 1007.7
20260505083426 11 0 0.0 0.0 0.00 0.00 0.00 90 1007.7
20260505082927 11 0 0.0 0.0 0.00 0.00 0.00 90 1007.7
20260505082426 11 0 0.0 0.0 0.00 0.00 0.00 89 1007.8
20260505081926 11 0 0.0 0.0 0.00 0.00 0.00 89 1007.7
20260505081428 11 0 0.0 0.0 0.00 0.00 0.00 89 1007.7
20260505080929 11 0 0.0 0.0 0.00 0.00 0.00 88 1007.8
20260505080427 11 0 0.0 0.0 0.00 0.00 0.00 88 1007.7
20260505075929 11 0 0.0 0.0 0.00 0.00 0.00 88 1007.7
20260505075427 12 0 0.0 0.0 0.00 0.00 0.00 87 1007.7
20260505074928 12 0 0.0 0.0 0.00 0.00 0.00 87 1007.6
20260505074427 12 219 0.0 1.6 0.00 0.00 0.00 86 1007.6
20260505073927 12 0 0.0 0.0 0.00 0.00 0.00 85 1007.5
20260505073426 12 0 0.0 0.0 0.00 0.00 0.00 85 1007.5
20260505072927 12 0 0.0 0.0 0.00 0.00 0.00 84 1007.5
20260505072427 12 0 0.0 0.0 0.00 0.00 0.00 84 1007.5
20260505071926 12 246 0.0 1.6 0.00 0.00 0.00 83 1007.3
20260505071427 13 0 0.0 0.0 0.00 0.00 0.00 83 1007.3
20260505070927 13 318 0.0 1.6 0.00 0.00 0.00 83 1007.5
20260505070427 13 328 0.0 1.6 0.00 0.00 0.00 83 1007.5
20260505065926 13 47 1.6 3.2 0.00 0.00 0.00 83 1007.2
20260505065427 12 19 1.6 3.2 0.00 0.00 0.00 84 1007.3
20260505064926 12 239 0.0 1.6 0.00 0.00 0.00 84 1007.7
20260505064426 12 0 0.0 0.0 0.00 0.00 0.00 84 1007.6
20260505063928 12 0 0.0 0.0 0.00 0.00 0.00 83 1007.6
20260505063426 12 0 0.0 0.0 0.00 0.00 0.00 83 1007.6
20260505062927 12 307 0.0 1.6 0.00 0.00 0.00 83 1007.7
20260505062427 13 303 0.0 3.2 0.00 0.00 0.00 82 1007.6
20260505061926 13 0 0.0 0.0 0.00 0.00 0.00 81 1007.6
20260505061427 13 0 0.0 0.0 0.00 0.00 0.00 80 1007.6
20260505060926 13 0 0.0 0.0 0.00 0.00 0.00 80 1007.6
20260505060426 13 0 0.0 0.0 0.00 0.00 0.00 80 1007.7
20260505055927 13 0 0.0 0.0 0.00 0.00 0.00 79 1007.8
20260505055427 13 0 0.0 0.0 0.00 0.00 0.00 78 1007.7
20260505054926 13 0 0.0 0.0 0.00 0.00 0.00 78 1007.8
20260505054427 13 0 0.0 0.0 0.00 0.00 0.00 78 1007.8
20260505053927 14 0 0.0 0.0 0.00 0.00 0.00 78 1007.9
20260505053426 14 0 0.0 0.0 0.00 0.00 0.00 78 1007.9
20260505052927 14 0 0.0 0.0 0.00 0.00 0.00 77 1007.9
20260505052426 14 0 0.0 0.0 0.00 0.00 0.00 77 1007.9
20260505051927 14 0 0.0 0.0 0.00 0.00 0.00 77 1007.9
20260505051426 15 0 0.0 0.0 0.00 0.00 0.00 76 1007.9
20260505050928 15 0 0.0 0.0 0.00 0.00 0.00 76 1008.0
20260505050427 15 0 0.0 0.0 0.00 0.00 0.00 76 1007.9
20260505041426 16 0 0.0 0.0 0.00 0.00 0.00 68 1007.8
20260505040927 17 0 0.0 0.0 0.00 0.00 0.00 67 1007.8
20260505040426 17 0 0.0 0.0 0.00 0.00 0.00 66 1007.8
20260505035927 17 0 0.0 0.0 0.00 0.00 0.00 64 1007.8
20260505035426 17 316 0.0 3.2 0.00 0.00 0.00 63 1007.7
20260505034926 17 0 0.0 0.0 0.00 0.00 0.00 61 1007.8
20260505034426 18 0 0.0 0.0 0.00 0.00 0.00 60 1007.7
20260505033926 18 0 0.0 0.0 0.00 0.00 0.00 58 1007.6
20260505033426 18 0 0.0 0.0 0.00 0.00 0.00 59 1007.6
20260505032927 18 0 0.0 0.0 0.00 0.00 0.00 59 1007.5
20260505032426 18 0 0.0 0.0 0.00 0.00 0.00 59 1007.6
20260505031927 18 0 0.0 0.0 0.00 0.00 0.00 59 1007.7
20260505031426 19 0 0.0 0.0 0.00 0.00 0.00 57 1007.6
20260505030926 20 0 0.0 0.0 0.00 0.00 0.00 56 1007.6
20260505030429 20 0 0.0 0.0 0.00 0.00 0.00 54 1007.7
20260505025929 20 0 0.0 0.0 0.00 0.00 0.00 51 1007.7
20260505025429 20 0 0.0 0.0 0.00 0.00 0.00 49 1007.7
20260505024929 20 243 1.6 6.4 0.00 0.00 0.00 49 1007.6
20260505024428 20 73 0.0 3.2 0.00 0.00 0.00 50 1007.6
20260505023928 20 244 3.2 6.4 0.00 0.00 0.00 49 1007.6
20260505023426 20 228 3.2 6.4 0.00 0.00 0.00 49 1007.7
20260505022928 20 310 0.0 1.6 0.00 0.00 0.00 49 1007.7
20260505022429 21 18 0.0 1.6 0.00 0.00 0.00 50 1007.7
20260505021930 21 0 0.0 0.0 0.00 0.00 0.00 49 1007.7
20260505021429 21 60 3.2 8.0 0.00 0.00 0.00 48 1007.7
20260505020928 21 321 1.6 4.8 0.00 0.00 0.00 48 1007.7
20260505020426 21 112 1.6 3.2 0.00 0.00 0.00 47 1007.8
20260505015926 21 97 1.6 4.8 0.00 0.00 0.00 48 1007.9
20260505015427 21 100 3.2 4.8 0.00 0.00 0.00 48 1007.8
20260505014926 21 71 1.6 4.8 0.00 0.00 0.00 47 1007.8
20260505014426 21 253 1.6 8.0 0.00 0.00 0.00 47 1007.7